Погода в Малмыже

Россия / Хабаровский край     49°51′09″N   136°45′52″E
темп.,
°C
ветер,
м/с
пор.,
м/с
влажн.,
%
обл.,
%
осадки,
мм/ч
давл.,
гПа
погр.,
м
10 мая, пн
пн1001:00+3ссв111892100 0.0 1008580
04:00+2ссв111888100 0.0 1009605
07:00+2ссв10178484 0.0 1010621
10:00+5ссв10146832 0.0 1011648
13:00+6ссв9136594 0.0 1011704
16:00+7ссв9136779 0.0 1011690
19:00+6ссв8136960 0.0 1012518
22:00+4ссв8147289 0.0 1014338
11 мая, вт
вт1101:00+3ссв5107755 0.0 1014202
04:00+3ссв497958 0.0 1015181
07:00+3ссв477666 0.0 1017199
10:00+7ссв46555 0.0 1017456
13:00+9ссв33455 0.0 1016716
16:00+11св01443 0.0 1016795
19:00+10ю11492 0.0 1016471
22:00+7ю23565 0.0 101719
12 мая, ср
ср1201:00+6ююз33665 0.0 101721
04:00+4ю33806 0.0 101739
07:00+5ю347940 0.0 101786
10:00+9ююз356379 0.0 1016531
13:00+12ююз4650100 0.0 1013911
16:00+13ююз4645100 0.0 1010987
19:00+13юз51055100 0.0 1008352
22:00+8ю51394100 2.4 1009463
13 мая, чт
чт1301:00+8ю61491100 0.9 1008503
04:00+8ю71489100 1.1 1006446
07:00+8ююз8159097 0.3 1006546
10:00+9ююз81386100 0.4 1006625
13:00+11ююз697299 0.3 1005937
16:00+12зюз711618 0.8 10051091
19:00+12з7125816 0.1 1005730
22:00+9з48643 0.1 100793
14 мая, пт
пт1401:00+8ююз33678 0.0 100819
04:00+6юз11835 0.0 100910
07:00+7юв3383100 0.0 101067
10:00+11ююз46705 0.0 1009318
13:00+15ююз4756100 0.0 1007762
16:00+18юз71045100 0.0 10041672
19:00+16ююв3452100 0.0 100259
22:00+13юв4656100 0.0 100057